Location: Chuathbaluk
(61.5726°N, 159.2454°W)
Time: 19:00:08
(UTC+00:00)

TIGRISAT - Pass Details

Date: 25 January 2021
Orbit: 605 x 688 km, 97.7° (Epoch: 06 March)

Event Time Altitude Azimuth Distance (km) Brightness Sun altitude
Rises 14:51:26 0° 101° (E) 2,903 ? -30.4°
Reaches altitude 10° 14:54:19 10° 80° (E) 2,015 ? -30.0°
Maximum altitude 14:56:59 16° 42° (NE) 1,660 ? -29.7°
Drops below altitude 10° 14:59:42 10° 5° (N) 2,051 ? -29.4°
Enters shadow 15:01:03 - 353° (N) 2,442 ? -29.3°
